Погода в Чонджу

Южная Корея     35°49′44″N   127°08′49″E
темп.,
°C
ветер,
м/с
пор.,
м/с
влажн.,
%
обл.,
%
осадки,
мм/ч
давл.,
гПа
погр.,
м
13 апреля, вт
вт1300:00+12ю21098100 0.6 1011515
03:00+11з3898100 0.9 1011771
06:00+9з2696100 0.2 1012640
09:00+9з2697100 0.3 1014588
12:00+11зсз6973100 0.2 10151085
15:00+11зсз695098 0.2 10151085
18:00+6зсз585460 0.0 1017882
21:00+3сз3764100 0.0 1019539
14 апреля, ср
ср1400:00+3сз2569100 0.0 1020258
03:00+1ссз2270100 0.0 102073
06:00+1ссв117230 0.0 102014
09:00+7ссз36360 0.0 1021739
12:00+12сз47270 0.0 10201368
15:00+14зсз68230 0.0 10192025
18:00+10зсз36350 0.0 1020704
21:00+4ссз00540 0.0 102125
15 апреля, чт
чт1500:00+4юз1155100 0.0 102213
03:00+3вюв1160100 0.0 102112
06:00+3в1164100 0.0 102112
09:00+10св1241100 0.0 1020374
12:00+15зсз1128100 0.0 10191106
15:00+17юз12240 0.0 10171656
18:00+14ю24340 0.0 1016262
21:00+8юв226154 0.0 101833
16 апреля, пт
пт1600:00+6ююв2264100 0.0 101833
03:00+5ююв2365100 0.0 101760
06:00+6ююв2370100 0.0 101660
09:00+9ю2871100 0.0 1017469
12:00+12з3571100 0.0 10171117
15:00+16з46409 0.1 10151496
18:00+13зсз233641 0.0 1015204
21:00+7ююз11470 0.0 101713
17 апреля, сб
сб1700:00+5ююв225922 0.0 101728
03:00+4ююв347029 0.0 101572
06:00+5ююз3107342 0.0 1014291
09:00+10зсз59563 0.0 1016982
12:00+13зсз511380 0.0 10162321
15:00+11зсз711513 0.1 10161693
18:00+9зсз611600 0.1 10181426
21:00+5зсз411700 0.1 1020669